Regional Weather Roundup
Issued by NWS

Home | Current Version | Previous Version | Text Only | Print | Product List | Glossary On
Versions: 1 2 3 4 5 6 7 8 9 10 11 12 13 14 15 16 17 18 19 20 21 22 23 24 25 26 27 28 29 30 31 32 33 34 35 36 37 38 39 40 41 42 43 44 45 46 47 48 49 50
969
ASUS44 KLUB 191501
RWRTX
WEST TEXAS WEATHER ROUNDUP
NATIONAL WEATHER SERVICE LUBBOCK TX
900 AM CST THU JAN 19 2017

NOTE: "FAIR" INDICATES FEW OR NO CLOUDS BELOW 12,000 FEET WITH NO
SIGNIFICANT WEATHER AND/OR OBSTRUCTIONS TO VISIBILITY.

TXZ004-006>008-010-012-014-016-OKZ002-191600-
TEXAS PANHANDLE/OKLAHOMA PANHANDLE

CITY           SKY/WX    TMP DP  RH WIND       PRES   REMARKS
AMARILLO       SUNNY     38  30  73 W8        29.60S WCI  32
BORGER         SUNNY     37  32  82 W8        29.60S WCI  31
CANADIAN       SUNNY     40  39  99 SW6       29.61F
DALHART        CLEAR     30  25  81 W10       29.62R WCI  21
DUMAS          SUNNY     31  28  87 W7        29.60R WCI  24
GUYMON         CLOUDY    31  28  89 NW9       29.58F WCI  23
HEREFORD       SUNNY     38  32  78 W15G21    29.63S WCI  29
PAMPA          CLOUDY    38  34  84 SW8       29.60S WCI  32
$$

TXZ026-029-035-045-048-191600-
SOUTHERN PANHANDLE/SOUTH PLAINS/ROLLING PLAINS

CITY           SKY/WX    TMP DP  RH WIND       PRES   REMARKS
CHILDRESS      SUNNY     44  38  79 S10       29.65F
SEMINOLE       SUNNY     42  35  76 SW12      29.79S
LUBBOCK        CLOUDY    45  34  65 SW20      29.68S
PLAINVIEW      SUNNY     41  33  74 SW17      29.64S
SNYDER         SUNNY     41  39  91 SW13      29.77S
$$

TXZ052-054-060>062-072-078-127-140-154-169-191600-
PERMIAN BASIN/CONCHO VALLEY/BIG COUNTRY/EDWARDS PLATEAU

CITY           SKY/WX    TMP DP  RH WIND       PRES   REMARKS
ABILENE        SUNNY     45  43  93 S16       29.79R
BIG SPRING     SUNNY     46  38  74 S13       29.82S
BROWNWOOD      CLOUDY    45  45 100 S9        29.85S FOG
JUNCTION       MOSUNNY   44  44 100 SW6       29.89S
MIDLAND        SUNNY     51  36  56 SW17      29.81S
ODESSA         SUNNY     48  35  60 SW17      29.82S
SAN ANGELO     SUNNY     49  44  83 SW10      29.84S
SONORA         FOG       37  37 100 S5        29.93S VSB<1/4 WCI  34
SWEETWATER     SUNNY     48  40  74 SW18G24   29.80R
WINK           SUNNY     49  36  61 SW14      29.81S
$$

TXZ055-058-074-075-080-082-191600-
FAR WEST/SOUTHWEST MOUNTAINS/TRANS PECOS

CITY           SKY/WX    TMP DP  RH WIND       PRES   REMARKS
ALPINE         SUNNY     47  31  53 SW10      29.99S
DRYDEN           N/A     49  40  71 W9        29.90R
EL PASO        PTCLDY    48  31  51 W21G31    29.96R
FORT STOCKTON  SUNNY     50  35  56 SW15      29.88R
GUADALUPE PASS SUNNY     42  32  67 W53G67    29.80F
MARFA          SUNNY     40  33  76 W8        29.98R WCI  34
PECOS          SUNNY     52  35  53 SW14G21   29.86R
$$

TXZ014-016-019-021>030-083-191600
TEXAS TECH WEST TEXAS MESONET/TEXAS PANHANDLE/NORTHERN SOUTH PLAINS

CITY           SKY/WX    TMP DP  RH WIND       PRES   REMARKS
ABERNATHY 5ENE   N/A     40  35  81 SW17      29.68S WCI  32
AMARILLO 9NNE    N/A     34  30  84 E1        29.62R
AMARILLO 7SSE    N/A     35  30  82 W12       29.62R WCI  27
AMHERST 1NE      N/A     41  33  74 SW13      29.67S
BOOTLEG 11WNW    N/A     34  26  72 W15       29.65S WCI  25
CANADIAN 6E      N/A     38  38  99 S8        29.60S WCI  32
CAPROCK CYN SP   N/A     47  35  61 SW25      29.61F
CHILDRESS 2NNE   N/A     43  39  87 S13       29.65F
CLARENDON 2WSW   N/A     42  35  78 SW6       29.61F
CLAUDE 12SW      N/A     40  30  66 W9        29.61R WCI  34
DIMMITT 2NE      N/A     38  31  75 SW17      29.63S WCI  28
FLOYDADA 2NNE    N/A     43  35  74 SW17      29.65F
FRIONA 2NE       N/A     36  29  76 W14       29.65R WCI  27
GOODLETT 3W      N/A     44  40  86 S9        29.66F
HART 3N          N/A     38  33  82 W15       29.64R WCI  29
HEREFORD 2NW     N/A     35  29  78 W16       29.63R WCI  25
MCLEAN 1E        N/A     36  35  99 S5        29.60F WCI  32
MEMPHIS 1NE      N/A     33  33  99 N2        29.64S
MULESHOE 2SSW    N/A     43  32  65 W21       29.66S
OLTON 6S         N/A     40  33  77 SW16      29.66S WCI  31
PALO DURO SP     N/A     38  30  70 W12       29.62S WCI  31
PAMPA 2E         N/A     35  32  88 SW6       29.60S WCI  30
PLAINVIEW 1S     N/A     41  34  77 SW15      29.64S
SILVERTON 7ESE   N/A     44  34  69 SW18      29.62F
TULIA 2ENE       N/A     38  33  83 SW16      29.63R WCI  29
TURKEY 2WSW      N/A     46  37  73 SW14      29.62F
UMBARGER 3NNE    N/A     34  30  85 SW13      29.62S WCI  25
$$

TXZ033>036-039>041-045>048-191600
TEXAS TECH WEST TEXAS MESONET/SOUTH PLAINS

CITY           SKY/WX    TMP DP  RH WIND       PRES   REMARKS
AIKEN 3WSW       N/A     41  34  77 SW17      29.65F
ANDREWS 2NE      N/A     45  35  69 SW10      29.81R
ANTON 6SSW       N/A     43  35  73 SW22      29.68F
BROWNFIELD 2S    N/A     42  35  77 SW14      29.74S
DENVR CTY 7WNW   N/A     38  33  79 SW14      29.75F WCI  30
GAIL 2ESE        N/A     42  38  86 SW9       29.76S
LAMESA 2SE       N/A     42  37  82 SW14      29.78R
LEVELLAND 4S     N/A     44  33  64 SW20      29.70F
LUBBOCK 3WNW     N/A     44  35  71 SW13      29.71S
MORTON 1ENE      N/A     43  33  68 W16       29.70R
ODONNELL 1N      N/A     42  35  76 SW16      29.75S
PLAINS 3N        N/A     41  35  79 SW12      29.74S
RALLS 1SE        N/A     42  35  76 SW18      29.70S
REESE CENTER     N/A     41  34  75 SW16      29.70S
SEAGRAVES 1SW    N/A     41  35  78 SW13      29.76S
SEMINOLE 2NNE    N/A     42  33  71 SW14      29.77F
SLATON 2NE       N/A     42  36  78 SW17      29.70F
SNYDER 3E        N/A     41  39  93 S8        29.76F
SUNDOWN 8SW      N/A     42  34  71 SW16      29.72S
TAHOKA 3NNE      N/A     41  35  80 SW14      29.73S
WOLFFORTH 6SSW   N/A     41  35  79 SW15      29.72S
$$

TXZ031-032-036>038-042>044-191600-
TEXAS TECH WEST TEXAS MESONET/ROLLING PLAINS

CITY           SKY/WX    TMP DP  RH WIND       PRES   REMARKS
ASPERMONT 3NE    N/A     45  40  82 S12       29.73F
FLUVANNA 3WNW    N/A     42  36  81 SW14      29.75S
GRAHAM 5SSW      N/A     45  36  70 SW15      29.73S
GUTHRIE 10WSW    N/A     43  38  82 S10       29.70S
HASKELL 1NW      N/A     43  42  97 S10       29.73F
JAYTON 1SSE      N/A     46  38  75 SW9       29.72S
KNOX CITY 3NW    N/A     44  40  86 S9        29.73F
LK A HENRY 1NW   N/A     47  36  66 SW13      29.73S
NORTHFIELD 1S    N/A     46  38  74 SW15      29.65F
PADUCAH 10SW     N/A     42  39  89 SW13      29.68F
POST 1NE         N/A     46  35  65 SW15      29.73S
RRING SPRGS 3N   N/A     47  38  72 SW22G35   29.64F
SEYMOUR 3NW      N/A     45  42  88 S12       29.73S
SPUR 1W          N/A     43  38  84 SW8       29.70F
WEINERT 2NNE     N/A     45  41  84 S12       29.73F
WHITE RVR 6NE    N/A     45  37  72 SW14      29.70S
$$

TXZ052-054-060>062-072-078-127-140-154-169-191600-
TEXAS TECH WEST TEXAS MESONET/PERMIAN BASIN/
CONCHO VALLEY/BIG COUNTRY/EDWARDS PLATEAU

CITY           SKY/WX    TMP DP  RH WIND       PRES   REMARKS
COYANOSA 2N      N/A     49  35  58 SW15      29.86S
JUNCTION 1SSW    N/A     43  43 100 SW6       29.90S
MERTZON 3NNE     N/A     47  42  81 S8        29.85S
SAN ANGELO 7NW   N/A     46  41  83 SW12      29.83S
STRLNG CT 4WSW   N/A     49  38  66 S10       29.82F
ST LAWRNCE 5SW   N/A     44  38  78 S12       29.83S
SWEETWATR 11SW   N/A     48  39  70 SW13      29.79S
WALL 1E          N/A     46  42  85 CALM      29.85S
$$

TXZ055-058-074-075-080-082-191600-
TEXAS TECH WEST TEXAS MESONET/FAR WEST/SOUTHWEST MOUNTAINS/TRANS PECOS

CITY           SKY/WX    TMP DP  RH WIND       PRES   REMARKS
PRSMN GAP BBNP   N/A     43  37  80 S1        29.96R
GUADLPE MTN NP   N/A     43  26  52 W58       29.78F
$$




USA.gov is the U.S. government's official web portal to all federal, state and local government web resources and services.